Date String (YYYY-MM-DD hh:mm:ss) UTC,Instrument flags,absolute air pressure of the measurement (hPa),sample flow rate (lpm),inlet stack bypass flow (lpm),air temperature of the measurement (°C),ambient temperature measured by the external sensor (°C),aerosol sample conditioner tube jacket temperature (°C),OPC LED temperature (°C),internal box temperature (°C),relative humidity of the measurement (%),span deviation,mass concentration of particles derived from Lorenz-Mie calculation of OPC scattering (μg/m³),mass concentration of particles derived from Lorenz-Mie calculation of OPC scattering (μg/m³),mass concentration of particles derived from Lorenz-Mie calculation of OPC scattering (μg/m³)
DateTimeUTC,F1_M11,P_M11,Q1_M11,Q2_M11,T1_M11,T2_M11,T3_M11,T4_M11,T5_M11,U1_M11,ZSPAN_M11,X0_M11,X2_M11,X1_M11
2023-12-07 12:00:00,SystemResetWarning,0820.1,5.00,000.00,024.0,023.0,000.0,032.4,025.3,8.1,0000.0,0003.70,0001.64,0001.37
2023-12-07 12:01:00,SystemResetWarning,0820.2,5.00,000.00,024.0,023.0,000.0,032.4,025.2,8.0,0000.0,0003.22,0001.50,0001.28
2023-12-07 12:02:00,SystemResetWarning,0820.1,5.00,000.00,024.0,023.0,000.0,032.4,025.2,7.8,0000.0,0002.95,0001.41,0001.23
2023-12-07 12:03:00,SystemResetWarning,0820.1,5.01,000.00,024.0,023.0,000.0,032.4,025.2,7.8,0000.0,0002.33,0001.40,0001.23
2023-12-07 12:04:00,SystemResetWarning,0820.1,5.00,000.00,024.0,023.0,000.0,032.4,025.3,7.7,0000.0,0002.05,0001.41,0001.25
2023-12-07 12:05:00,SystemResetWarning,0820.3,5.00,000.00,024.0,023.0,000.0,032.4,025.3,8.2,0000.0,0002.35,0001.39,0001.22
2023-12-07 12:06:00,SystemResetWarning,0820.1,5.00,000.00,024.0,023.0,000.0,032.4,025.3,8.0,0000.0,0002.19,0001.24,0001.07
2023-12-07 12:07:00,SystemResetWarning,0820.1,5.00,000.00,024.0,023.0,000.0,032.4,025.2,7.8,0000.0,0001.91,0001.11,0000.96
2023-12-07 12:08:00,SystemResetWarning,0820.1,5.00,000.00,024.0,023.0,000.0,032.4,025.2,7.9,0000.0,0002.01,0001.02,0000.89
2023-12-07 12:09:00,SystemResetWarning,0820.0,4.99,000.00,024.0,023.0,000.0,032.4,025.2,7.7,0000.0,0001.89,0000.91,0000.81
2023-12-07 12:10:00,SystemResetWarning,0820.1,5.00,000.00,023.9,022.9,000.0,032.3,025.1,7.9,0000.0,0001.85,0000.87,0000.76
2023-12-07 12:11:00,SystemResetWarning,0820.1,5.00,000.00,023.9,022.9,000.0,032.3,025.1,8.0,0000.0,0001.87,0000.85,0000.72
2023-12-07 12:12:00,SystemResetWarning,0820.0,5.01,000.00,023.9,022.8,000.0,032.3,025.1,8.3,0000.0,0001.81,0000.78,0000.64
2023-12-07 12:13:00,SystemResetWarning,0820.1,5.00,000.00,023.9,022.8,000.0,032.3,025.1,8.1,0000.0,0001.72,0000.70,0000.58
2023-12-07 12:14:00,SystemResetWarning,0819.9,5.00,000.00,023.9,022.8,000.0,032.3,025.1,8.5,0000.0,0001.58,0000.63,0000.52
2023-12-07 12:15:00,SystemResetWarning,0820.0,5.00,000.00,023.9,022.8,000.0,032.3,025.1,8.6,0000.0,0001.46,0000.57,0000.47
2023-12-07 12:16:00,SystemResetWarning,0820.1,5.00,000.00,023.9,022.8,000.0,032.3,025.1,8.1,0000.0,0001.08,0000.58,0000.47
2023-12-07 12:17:00,SystemResetWarning,0819.9,5.00,000.00,023.9,022.8,000.0,032.3,025.1,8.5,0000.0,0001.44,0000.65,0000.51
2023-12-07 12:18:00,SystemResetWarning,0820.0,5.00,000.00,023.9,022.8,000.0,032.2,025.2,8.6,0000.0,0001.71,0000.71,0000.55
2023-12-07 12:19:00,SystemResetWarning,0820.1,4.99,000.00,023.9,022.8,000.0,032.2,025.2,8.1,0000.0,0001.55,0000.77,0000.59
2023-12-07 12:20:00,SystemResetWarning,0820.1,5.00,000.00,023.9,022.8,000.0,032.2,025.2,8.2,0000.0,0001.64,0000.84,0000.63
2023-12-07 12:21:00,SystemResetWarning,0820.0,5.00,000.00,023.8,022.8,000.0,032.2,025.1,8.7,0000.0,0001.71,0000.90,0000.68
2023-12-07 12:22:00,SystemResetWarning,0819.8,4.99,000.00,023.8,022.8,000.0,032.2,025.0,9.2,0000.0,0001.71,0000.93,0000.73
2023-12-07 12:23:00,SystemResetWarning,0820.1,5.00,000.00,023.8,022.8,000.0,032.2,025.0,9.3,0000.0,0001.73,0000.94,0000.75
2023-12-07 12:24:00,SystemResetWarning,0819.8,5.00,000.00,023.8,022.7,000.0,032.2,025.1,9.5,0000.0,0001.74,0000.96,0000.76
2023-12-07 12:25:00,SystemResetWarning,0819.8,5.00,000.00,023.8,022.7,000.0,032.2,025.0,9.9,0000.0,0001.81,0000.97,0000.76
2023-12-07 12:26:00,SystemResetWarning,0819.5,5.00,000.00,023.8,022.7,000.0,032.2,025.0,9.9,0000.0,0001.77,0000.93,0000.73
2023-12-07 12:27:00,SystemResetWarning,0819.5,5.00,000.00,023.8,022.7,000.0,032.2,025.0,9.9,0000.0,0001.74,0000.88,0000.71
2023-12-07 12:28:00,SystemResetWarning,0819.7,5.00,000.00,023.8,022.6,000.0,032.2,024.9,10.1,0000.0,0001.48,0000.83,0000.68
2023-12-07 12:29:00,SystemResetWarning,0819.6,5.01,000.00,023.7,022.6,000.0,032.2,024.9,10.1,0000.0,0001.21,0000.80,0000.66
2023-12-07 12:30:00,SystemResetWarning,0819.7,5.00,000.00,023.7,022.6,000.0,032.2,024.9,10.0,0000.0,0001.11,0000.76,0000.64
2023-12-07 12:31:00,SystemResetWarning,0819.9,5.00,000.00,023.7,022.6,000.0,032.2,024.9,10.0,0000.0,0001.15,0000.73,0000.60
2023-12-07 12:32:00,SystemResetWarning,0819.8,5.00,000.00,023.7,022.6,000.0,032.1,024.9,10.1,0000.0,0001.69,0000.69,0000.56
2023-12-07 12:33:00,SystemResetWarning,0820.0,5.01,000.00,023.7,022.6,000.0,032.1,024.9,9.8,0000.0,0001.79,0000.67,0000.53
2023-12-07 12:34:00,SystemResetWarning,0819.8,5.00,000.00,023.7,022.6,000.0,032.1,024.9,9.8,0000.0,0001.86,0000.68,0000.53
2023-12-07 12:35:00,SystemResetWarning,0819.9,4.99,000.00,023.7,022.6,000.0,032.1,024.9,10.1,0000.0,0002.07,0000.67,0000.52
2023-12-07 12:36:00,SystemResetWarning,0819.9,4.99,000.00,023.7,022.6,000.0,032.1,024.9,10.1,0000.0,0002.83,0000.71,0000.53
2023-12-07 12:37:00,SystemResetWarning,0820.2,5.00,000.00,023.6,022.5,000.0,032.1,024.9,10.3,0000.0,0003.12,0000.75,0000.53
2023-12-07 12:38:00,SystemResetWarning,0820.0,5.01,000.00,023.6,022.5,000.0,032.1,024.9,10.4,0000.0,0003.41,0000.78,0000.53
2023-12-07 12:39:00,SystemResetWarning,0820.1,4.99,000.00,023.6,022.5,000.0,032.1,024.8,10.1,0000.0,0003.80,0000.84,0000.53
2023-12-07 12:40:00,SystemResetWarning,0819.9,4.99,000.00,023.6,022.5,000.0,032.0,024.8,10.3,0000.0,0004.06,0000.86,0000.52
2023-12-07 12:41:00,SystemResetWarning,0819.8,5.01,000.00,023.6,022.5,000.0,032.0,024.9,10.1,0000.0,0005.02,0000.88,0000.51
2023-12-07 12:42:00,SystemResetWarning,0819.8,5.01,000.00,023.6,022.5,000.0,032.0,024.9,9.8,0000.0,0004.97,0000.88,0000.52
2023-12-07 12:43:00,SystemResetWarning,0819.9,4.99,000.00,023.6,022.5,000.0,032.0,024.9,9.5,0000.0,0004.45,0000.91,0000.54
2023-12-07 12:44:00,SystemResetWarning,0820.1,4.99,000.00,023.6,022.5,000.0,032.0,024.9,9.4,0000.0,0004.62,0000.97,0000.54
2023-12-07 12:45:00,SystemResetWarning,0820.0,5.02,000.00,023.6,022.5,000.0,032.0,024.9,9.2,0000.0,0004.54,0000.96,0000.53
2023-12-07 12:46:00,SystemResetWarning,0820.0,5.01,000.00,023.6,022.5,000.0,032.0,024.9,8.8,0000.0,0004.39,0000.95,0000.53
2023-12-07 12:47:00,SystemResetWarning,0820.0,4.99,000.00,023.6,022.5,000.0,032.0,025.0,8.9,0000.0,0003.64,0000.92,0000.53
2023-12-07 12:48:00,SystemResetWarning,0820.0,4.99,000.00,023.6,022.5,000.0,032.0,025.0,8.6,0000.0,0004.49,0000.91,0000.52
2023-12-07 12:49:00,SystemResetWarning,0820.0,5.00,000.00,023.6,022.5,000.0,032.0,024.9,8.6,0000.0,0004.80,0000.89,0000.52
2023-12-07 12:50:00,SystemResetWarning,0820.0,5.01,000.00,023.6,022.5,000.0,032.0,024.9,8.7,0000.0,0004.41,0000.84,0000.52
2023-12-07 12:51:00,SystemResetWarning,0820.0,5.01,000.00,023.6,022.5,000.0,032.0,024.9,9.1,0000.0,0004.36,0000.83,0000.52
2023-12-07 12:52:00,SystemResetWarning,0820.0,5.00,000.00,023.6,022.5,000.0,032.0,024.9,9.4,0000.0,0004.08,0000.84,0000.54
2023-12-07 12:53:00,SystemResetWarning,0820.1,4.99,000.00,023.6,022.5,000.0,032.0,024.9,9.4,0000.0,0004.51,0000.85,0000.55
2023-12-07 12:54:00,SystemResetWarning,0819.9,4.99,000.00,023.6,022.5,000.0,031.9,024.9,9.9,0000.0,0004.46,0000.85,0000.57
2023-12-07 12:55:00,SystemResetWarning,0819.8,5.00,000.00,023.6,022.5,000.0,031.9,024.9,10.3,0000.0,0004.21,0000.81,0000.59
2023-12-07 12:56:00,SystemResetWarning,0819.8,5.00,000.00,023.6,022.5,000.0,031.9,024.8,10.3,0000.0,0004.23,0000.83,0000.61
2023-12-07 12:57:00,SystemResetWarning,0820.0,5.00,000.00,023.6,022.5,000.0,031.9,024.8,9.9,0000.0,0004.18,0000.84,0000.62
2023-12-07 12:58:00,SystemResetWarning,0819.8,5.00,000.00,023.6,022.5,000.0,031.9,024.9,10.0,0000.0,0004.16,0000.85,0000.63
2023-12-07 12:59:00,SystemResetWarning,0819.9,5.00,000.00,023.5,022.4,000.0,031.9,024.8,10.2,0000.0,0003.20,0000.85,0000.64
